EW5069 Weather Reports


time (UTC)temp
C
wind
direction
speed
KPH
gust
KPH
rain 1hr
cm
rain 24hr
cm
rain mn
cm
humidity
%
barometer
mb
20260510130100 12 360 0.0 0.0 0.00 0.00 0.00 71 1016.1
20260510124555 11 35 0.0 0.0 0.00 0.00 0.00 71 1015.8
20260510123051 11 32 0.0 0.0 0.00 0.00 0.00 71 1015.5
20260510121547 11 13 0.0 0.0 0.00 0.00 0.00 75 1015.5
20260510120042 10 15 0.0 0.0 0.00 0.00 0.00 75 1015.2
20260510114539 10 10 0.0 0.0 0.00 0.00 0.00 78 1014.9
20260510113038 10 351 0.0 0.0 0.00 0.00 0.00 80 1014.7
20260510111531 10 298 0.0 0.0 0.00 0.00 0.00 79 1014.3
20260510110034 10 349 0.0 0.0 0.00 0.00 0.00 80 1014.1
20260510104524 10 355 0.0 0.0 0.00 0.00 0.00 80 1013.9
20260510103021 10 263 0.0 0.0 0.00 0.00 0.00 81 1013.6
20260510101519 11 24 0.0 0.0 0.00 0.00 0.00 80 1013.4
20260510100016 11 11 0.0 0.0 0.00 0.00 0.00 80 1013.1
20260510094514 11 13 0.0 0.0 0.00 0.00 0.00 80 1013.0
20260510093013 11 12 0.0 0.0 0.00 0.00 0.00 80 1012.7
20260510091510 11 12 0.0 0.0 0.00 0.00 0.00 80 1012.6
20260510090009 11 13 0.0 0.0 0.00 0.00 0.00 80 1012.3
20260510084509 11 355 0.0 0.0 0.00 0.00 0.00 78 1012.2
20260510083007 11 9 0.0 0.0 0.00 0.00 0.00 79 1012.3
20260510081507 11 11 0.0 0.0 0.00 0.00 0.00 79 1012.3
20260510080005 11 11 0.0 0.0 0.00 0.00 0.00 80 1012.2
20260510074502 11 11 0.0 0.0 0.00 0.00 0.00 79 1011.8
20260510073101 11 11 0.0 0.0 0.00 0.00 0.00 79 1011.4
20260510071559 12 11 0.0 0.0 0.00 0.00 0.00 78 1011.2
20260510070057 12 17 0.0 0.0 0.00 0.00 0.00 77 1011.4
20260510064605 12 355 0.0 0.0 0.00 0.00 0.00 75 1011.4
20260510063054 12 355 0.0 0.0 0.00 0.00 0.00 75 1011.5
20260510061556 12 355 0.0 0.0 0.00 0.00 0.00 74 1011.5
20260510060050 12 355 0.0 0.0 0.00 0.00 0.00 74 1011.2
20260510054549 12 355 0.0 0.0 0.00 0.00 0.00 75 1011.1
20260510053044 12 355 0.0 0.0 0.00 0.00 0.00 73 1010.8
20260510051541 12 355 0.0 0.0 0.00 0.00 0.00 73 1010.5
20260510050045 13 355 0.0 0.0 0.00 0.00 0.00 72 1010.3
20260510044552 13 355 0.0 0.0 0.00 0.00 0.00 69 1010.3
20260510043035 13 355 0.0 0.0 0.00 0.00 0.00 69 1010.2
20260510041532 13 5 0.0 0.0 0.00 0.00 0.00 66 1010.0
20260510040029 14 5 0.0 0.0 0.00 0.00 0.00 63 1010.0
20260510034525 15 350 0.0 0.0 0.00 0.00 0.00 59 1009.6
20260510033024 15 334 0.0 0.0 0.00 0.00 0.00 59 1009.4
20260510031524 16 9 0.0 0.0 0.00 0.00 0.00 56 1008.8
20260510030031 17 360 0.0 0.0 0.00 0.00 0.00 57 1008.7
20260510024518 17 360 0.0 0.0 0.00 0.00 0.00 57 1008.5
20260510023013 17 360 0.0 0.0 0.00 0.00 0.00 54 1008.3
20260510021515 18 360 0.0 0.0 0.00 0.00 0.00 54 1007.9
20260510020012 17 360 0.0 0.0 0.00 0.00 0.00 53 1007.6
20260510014511 18 360 0.0 0.0 0.00 0.00 0.00 53 1007.3
20260510013013 18 360 0.0 0.0 0.00 0.00 0.00 51 1007.1
20260510011511 18 360 0.0 0.0 0.00 0.00 0.00 50 1006.8
20260510010011 18 360 0.0 0.0 0.00 0.00 0.00 55 1006.5
20260510004509 19 360 0.0 0.0 0.00 0.00 0.00 51 1006.5
20260510003019 18 242 0.0 0.0 0.00 0.00 0.00 72 1006.2
20260510001507 18 224 0.0 0.0 0.00 0.00 0.00 72 1005.8
20260510000006 19 360 0.0 0.0 0.00 0.00 0.00 72 1005.6
20260509234512 19 360 0.0 0.0 0.00 0.00 0.00 72 1005.6
20260509233005 20 360 0.0 0.0 0.00 0.00 0.00 70 1005.4
20260509231505 20 360 0.0 0.0 0.00 0.00 0.00 68 1005.5
20260509230004 20 225 0.0 0.0 0.00 0.00 0.00 67 1005.6
20260509224503 20 360 0.0 0.0 0.00 0.00 0.00 65 1005.5
20260509223002 21 360 0.0 0.0 0.00 0.00 0.00 63 1005.6
20260509221503 20 360 0.0 0.0 0.00 0.00 0.00 65 1005.4
20260509220002 20 360 0.0 0.0 0.00 0.00 0.00 66 1005.3
20260509214501 21 360 0.0 0.0 0.00 0.00 0.00 62 1005.2
20260509213101 21 360 0.0 0.0 0.00 0.00 0.00 62 1005.2
20260509211559 21 189 0.0 0.0 0.00 0.00 0.00 65 1004.9
20260509210057 21 360 0.0 0.0 0.00 0.00 0.00 63 1005.0
20260509204600 21 360 0.0 0.0 0.00 0.15 0.00 64 1005.4
20260509203119 21 208 0.0 0.0 0.00 0.15 0.00 63 1005.4
20260509201601 21 360 0.0 0.0 0.00 0.15 0.00 63 1005.4
20260509200056 21 360 0.0 0.0 0.00 0.15 0.00 64 1005.7
20260509194546 21 360 0.0 0.0 0.00 0.43 0.00 65 1005.8
20260509193047 20 360 0.0 0.0 0.00 0.43 0.00 67 1005.9
20260509191554 20 360 0.0 0.0 0.00 0.43 0.00 71 1005.8
20260509190038 20 360 0.0 0.0 0.00 0.43 0.00 71 1005.9
20260509184536 20 191 0.0 0.0 0.00 0.58 0.00 73 1005.9
20260509183034 19 192 0.0 0.0 0.00 0.58 0.00 76 1006.1
20260509181537 19 360 0.0 0.0 0.00 0.58 0.00 76 1005.9
20260509180031 19 360 0.0 0.0 0.00 0.58 0.00 77 1005.9
20260509174529 19 360 0.0 0.0 0.00 0.58 0.00 79 1005.9
20260509173026 18 360 0.0 0.0 0.00 0.58 0.00 79 1006.1
20260509171523 18 360 0.0 0.0 0.00 0.58 0.00 78 1006.3
20260509170021 18 190 0.0 0.0 0.00 0.58 0.00 82 1006.5
20260509164520 18 180 0.0 0.0 0.00 0.58 0.00 81 1006.5
20260509163018 17 197 0.0 0.0 0.00 0.58 0.00 81 1006.6
20260509161517 17 360 0.0 0.0 0.00 0.58 0.00 81 1006.4
20260509160015 16 192 0.0 0.0 0.00 0.58 0.00 84 1006.5
20260509154516 16 360 0.0 0.0 0.00 0.58 0.00 84 1006.4
20260509153011 16 360 0.0 0.0 0.00 0.58 0.00 84 1006.5
20260509151506 16 194 0.0 0.0 0.00 0.58 0.00 84 1006.6
20260509150002 15 360 0.0 0.0 0.00 0.58 0.00 84 1006.6
20260509144604 15 215 0.0 0.0 0.00 0.58 0.00 85 1006.7
20260509143055 15 360 0.0 0.0 0.00 0.58 0.00 86 1006.7
20260509141553 15 236 0.0 0.0 0.00 0.58 0.00 87 1006.9
20260509140051 15 360 0.0 0.0 0.00 0.58 0.00 88 1006.7
20260509134548 14 360 0.0 0.0 0.00 0.58 0.00 89 1006.7
20260509133044 13 360 0.0 0.0 0.00 0.58 0.00 90 1007.0
20260509131547 13 360 0.0 0.0 0.00 0.58 0.00 90 1006.9